Regional Weather Roundup
Issued by NWS Goodland, KS

Home | Current Version | Previous Version | Graphics & Text | Print | Product List | Glossary On
Versions: 1 2 3 4 5 6 7 8 9 10 11 12 13 14 15 16 17 18 19 20 21 22 23 24 25 26 27 28 29 30 31 32 33 34 35 36 37 38 39 40 41 42 43 44 45 46 47 48 49 50
265
ASUS43 KGLD 212159
RWRGLD

GOODLAND FORECAST AREA HOURLY WEATHER ROUNDUP
NATIONAL WEATHER SERVICE GOODLAND KS
400 PM MDT MON AUG 21 2017

...OFFICIAL OBSERVATIONS...

CITY           SKY/WX    TMP DP  RH WIND       PRES   REMARKS
GOODLAND KS    SUNNY     89  63  41 N9        30.00R
HILL CITY KS   CLOUDY    90  65  43 SW8       29.93S
IMPERIAL NEB   MOSUNNY   85  66  53 N16       30.00R
MCCOOK NEB     PTSUNNY   86  63  45 SW6       29.95S
AKRON CO       SUNNY     85  55  35 N17G28    30.12R
BURLINGTON CO  SUNNY     89  62  40 N12       30.05R
LIMON CO       SUNNY     85  47  26 N17G24    30.15S
$$

...UNOFFICIAL OBSERVATIONS...

CITY           SKY/WX    TMP DP  RH WIND       PRES   REMARKS
LENORA KS        N/A     89  32  13 SE9         N/A
NORTON KS      SUNNY     88  59  37 S7        29.93S
TRENTON NEB      N/A     88  32  13 CALM        N/A
KIT CARSON CO    N/A     90  58  33 MISG        N/A
YUMA CO        FAIR      82  48  30 N15G24    30.07R
$$




USA.gov is the U.S. government's official web portal to all federal, state and local government web resources and services.